| time (UTC) | temp C | wind direction | speed KPH | gust KPH | rain 1hr cm | rain 24hr cm | rain mn cm | humidity % | barometer mb |
| 20260506161524 | 17 | 257 | 1.6 | 9.7 | 0.00 | 9.91 | 7.06 | 1 | 1008.8 |
| 20260506160034 | 18 | 293 | 3.2 | 12.9 | 0.00 | 9.91 | 7.06 | 1 | 1008.9 |
| 20260506154518 | 18 | 252 | 0.0 | 8.0 | 0.00 | 9.91 | 7.06 | 1 | 1009.0 |
| 20260506153012 | 18 | 212 | 0.0 | 4.8 | 0.00 | 9.91 | 7.06 | 1 | 1008.7 |
| 20260506151509 | 19 | 288 | 1.6 | 14.5 | 0.00 | 9.91 | 7.06 | 16 | 1008.8 |
| 20260506150004 | 19 | 221 | 1.6 | 6.4 | 0.00 | 9.96 | 7.06 | 29 | 1009.0 |
| 20260506144607 | 19 | 254 | 3.2 | 11.3 | 0.00 | 9.96 | 7.06 | 31 | 1009.0 |
| 20260506143055 | 20 | 262 | 3.2 | 16.1 | 0.00 | 9.96 | 7.06 | 35 | 1009.1 |
| 20260506141550 | 20 | 227 | 3.2 | 9.7 | 0.00 | 9.96 | 7.06 | 33 | 1008.8 |
| 20260506140046 | 20 | 264 | 3.2 | 12.9 | 0.00 | 9.96 | 7.06 | 32 | 1008.9 |
| 20260506134543 | 19 | 234 | 3.2 | 17.7 | 0.00 | 9.96 | 7.06 | 31 | 1009.2 |
| 20260506133037 | 19 | 254 | 4.8 | 14.5 | 0.00 | 9.96 | 7.06 | 25 | 1009.1 |
| 20260506131545 | 18 | 226 | 1.6 | 12.9 | 0.00 | 9.96 | 7.06 | 19 | 1009.1 |
| 20260506130037 | 18 | 262 | 3.2 | 16.1 | 0.00 | 9.96 | 7.06 | 19 | 1009.3 |
| 20260506124523 | 18 | 269 | 1.6 | 14.5 | 0.00 | 9.96 | 7.06 | 10 | 1008.9 |
| 20260506123019 | 18 | 233 | 1.6 | 11.3 | 0.00 | 9.96 | 7.06 | 7 | 1008.9 |
| 20260506121516 | 18 | 294 | 1.6 | 11.3 | 0.00 | 9.96 | 7.06 | 6 | 1009.0 |
| 20260506120019 | 18 | 276 | 1.6 | 11.3 | 0.00 | 9.96 | 7.06 | 6 | 1009.2 |
| 20260506114520 | 18 | 261 | 1.6 | 4.8 | 0.00 | 9.96 | 7.06 | 2 | 1009.4 |
| 20260506113020 | 17 | 266 | 3.2 | 9.7 | 0.00 | 9.96 | 7.06 | 1 | 1009.2 |
| 20260506111511 | 17 | 243 | 3.2 | 12.9 | 0.00 | 9.96 | 7.06 | 1 | 1009.3 |
| 20260506110006 | 17 | 255 | 1.6 | 12.9 | 0.00 | 9.96 | 7.06 | 1 | 1009.3 |
| 20260506104501 | 17 | 238 | 1.6 | 4.8 | 0.00 | 9.96 | 7.06 | 1 | 1009.0 |
| 20260506103058 | 17 | 238 | 1.6 | 8.0 | 0.00 | 9.96 | 7.06 | 1 | 1009.1 |
| 20260506101554 | 17 | 236 | 1.6 | 8.0 | 0.00 | 9.96 | 7.06 | 1 | 1009.1 |
| 20260506100049 | 17 | 259 | 3.2 | 6.4 | 0.00 | 9.96 | 7.06 | 1 | 1009.1 |
| 20260506094559 | 17 | 268 | 3.2 | 8.0 | 0.00 | 9.96 | 7.06 | 1 | 1008.8 |
| 20260506093041 | 17 | 264 | 0.0 | 6.4 | 0.00 | 9.96 | 7.06 | 1 | 1008.9 |
| 20260506091535 | 17 | 259 | 3.2 | 9.7 | 0.00 | 9.96 | 7.06 | 1 | 1009.0 |
| 20260506090030 | 17 | 259 | 0.0 | 4.8 | 0.00 | 9.96 | 7.06 | 1 | 1009.1 |
| 20260506084526 | 17 | 276 | 0.0 | 11.3 | 0.00 | 9.96 | 7.06 | 1 | 1009.1 |
| 20260506083022 | 17 | 254 | 1.6 | 12.9 | 0.00 | 9.96 | 7.06 | 1 | 1009.1 |
| 20260506081517 | 17 | 226 | 1.6 | 8.0 | 0.00 | 9.96 | 7.06 | 1 | 1009.2 |
| 20260506073009 | 18 | 271 | 1.6 | 8.0 | 0.00 | 9.96 | 7.06 | 14 | 1009.1 |
| 20260506071510 | 18 | 259 | 1.6 | 11.3 | 0.00 | 9.96 | 7.06 | 19 | 1009.1 |
| 20260506061556 | 18 | 243 | 1.6 | 9.7 | 0.00 | 9.96 | 7.06 | 36 | 1009.4 |
| 20260506060119 | 18 | 278 | 1.6 | 9.7 | 0.00 | 9.96 | 7.06 | 38 | 1009.4 |
| 20260506044549 | 20 | 243 | 1.6 | 6.4 | 9.91 | 10.29 | 7.06 | 47 | 1010.0 |
| 20260506043045 | 20 | 248 | 1.6 | 9.7 | 9.91 | 10.29 | 7.06 | 48 | 1010.0 |
| 20260506041547 | 20 | 259 | 1.6 | 8.0 | 7.52 | 7.90 | 4.67 | 49 | 1009.9 |
| 20260506040042 | 20 | 225 | 1.6 | 9.7 | 3.28 | 3.66 | 0.43 | 50 | 1009.9 |
| 20260506034538 | 20 | 240 | 3.2 | 8.0 | 0.00 | 14.40 | 0.38 | 50 | 1009.9 |
| 20260506033038 | 20 | 266 | 0.0 | 9.7 | 0.00 | 14.40 | 0.38 | 51 | 1010.0 |
| 20260506031537 | 20 | 266 | 1.6 | 4.8 | 0.00 | 14.40 | 0.38 | 52 | 1009.9 |
| 20260506030038 | 21 | 219 | 1.6 | 9.7 | 0.00 | 14.40 | 0.38 | 52 | 1009.9 |
| 20260506024545 | 21 | 295 | 1.6 | 17.7 | 0.00 | 14.40 | 0.38 | 52 | 1009.7 |
| 20260506023036 | 21 | 267 | 1.6 | 17.7 | 0.00 | 14.40 | 0.38 | 52 | 1009.7 |
| 20260506021534 | 22 | 294 | 1.6 | 9.7 | 0.00 | 14.40 | 0.38 | 51 | 1009.6 |
| 20260506020033 | 22 | 215 | 6.4 | 19.3 | 0.00 | 14.40 | 0.38 | 50 | 1009.6 |
| 20260506014537 | 22 | 268 | 4.8 | 19.3 | 0.00 | 14.40 | 0.38 | 48 | 1009.4 |
| 20260506013035 | 23 | 214 | 3.2 | 17.7 | 0.00 | 14.40 | 0.38 | 46 | 1009.3 |
| 20260506011533 | 23 | 280 | 3.2 | 9.7 | 0.00 | 14.40 | 0.38 | 44 | 1009.1 |
| 20260506010034 | 23 | 309 | 4.8 | 9.7 | 0.00 | 14.40 | 0.38 | 43 | 1008.9 |
| 20260506004532 | 23 | 290 | 0.0 | 14.5 | 0.00 | 14.40 | 0.38 | 43 | 1008.8 |
| 20260506003036 | 24 | 246 | 6.4 | 12.9 | 0.00 | 14.40 | 0.38 | 42 | 1008.6 |
| 20260506001536 | 24 | 251 | 4.8 | 16.1 | 0.00 | 14.40 | 0.38 | 40 | 1008.5 |
| 20260506000029 | 25 | 276 | 6.4 | 14.5 | 0.00 | 14.40 | 0.38 | 37 | 1008.4 |
| 20260505234535 | 25 | 249 | 1.6 | 9.7 | 0.00 | 14.40 | 0.38 | 36 | 1008.3 |
| 20260505233028 | 25 | 273 | 1.6 | 6.4 | 0.00 | 14.40 | 0.38 | 35 | 1008.1 |
| 20260505231529 | 25 | 248 | 3.2 | 12.9 | 0.00 | 14.40 | 0.38 | 33 | 1008.0 |
| 20260505230045 | 26 | 261 | 4.8 | 19.3 | 0.00 | 14.40 | 0.38 | 33 | 1007.9 |
| 20260505224526 | 26 | 236 | 4.8 | 16.1 | 0.00 | 14.40 | 0.38 | 32 | 1007.5 |
| 20260505223050 | 26 | 243 | 6.4 | 19.3 | 0.00 | 14.40 | 0.38 | 31 | 1007.4 |
| 20260505221519 | 26 | 218 | 4.8 | 20.9 | 0.00 | 14.40 | 0.38 | 30 | 1007.4 |
| 20260505220031 | 26 | 225 | 8.0 | 19.3 | 0.00 | 14.40 | 0.38 | 29 | 1007.5 |
| 20260505214515 | 26 | 264 | 4.8 | 25.7 | 0.00 | 14.40 | 0.38 | 30 | 1007.3 |
| 20260505213004 | 27 | 274 | 6.4 | 17.7 | 0.00 | 14.40 | 0.38 | 30 | 1007.1 |
| 20260505211601 | 27 | 240 | 6.4 | 29.0 | 0.00 | 14.40 | 0.38 | 31 | 1006.9 |
| 20260505210055 | 27 | 229 | 8.0 | 20.9 | 0.00 | 14.40 | 0.38 | 31 | 1006.8 |
| 20260505204554 | 27 | 250 | 4.8 | 12.9 | 0.00 | 17.81 | 0.38 | 32 | 1007.0 |
| 20260505203047 | 27 | 278 | 6.4 | 14.5 | 0.00 | 17.81 | 0.38 | 31 | 1007.0 |
| 20260505201546 | 27 | 268 | 4.8 | 41.8 | 0.00 | 17.81 | 0.38 | 32 | 1007.1 |
| 20260505200043 | 27 | 245 | 8.0 | 24.1 | 0.00 | 17.81 | 0.38 | 32 | 1007.2 |
| 20260505194533 | 27 | 275 | 8.0 | 22.5 | 0.00 | 19.89 | 0.38 | 32 | 1007.2 |
| 20260505193031 | 27 | 248 | 4.8 | 16.1 | 0.00 | 19.89 | 0.38 | 32 | 1007.5 |
| 20260505191524 | 27 | 228 | 9.7 | 22.5 | 0.00 | 19.89 | 0.38 | 31 | 1007.7 |
| 20260505190024 | 27 | 16 | 8.0 | 22.5 | 0.00 | 19.89 | 0.38 | 33 | 1007.9 |
| 20260505184516 | 27 | 296 | 6.4 | 19.3 | 0.00 | 20.60 | 0.38 | 33 | 1008.1 |
| 20260505183011 | 27 | 269 | 4.8 | 20.9 | 0.00 | 20.60 | 0.38 | 35 | 1008.3 |
| 20260505181507 | 27 | 265 | 6.4 | 33.8 | 0.00 | 20.60 | 0.38 | 37 | 1008.3 |
| 20260505180002 | 27 | 238 | 1.6 | 12.9 | 0.00 | 22.20 | 0.38 | 38 | 1008.5 |
| 20260505174611 | 27 | 282 | 4.8 | 16.1 | 0.00 | 22.20 | 0.38 | 39 | 1008.5 |
| 20260505174527 | 27 | 304 | 6.4 | 16.1 | 0.00 | 22.20 | 0.38 | 39 | 1008.5 |
| 20260505173053 | 27 | 276 | 1.6 | 12.9 | 0.00 | 22.20 | 0.38 | 40 | 1008.8 |
| 20260505171551 | 27 | 154 | 4.8 | 14.5 | 0.00 | 22.20 | 0.38 | 40 | 1008.9 |
| 20260505170044 | 26 | 259 | 3.2 | 12.9 | 0.00 | 22.20 | 0.38 | 42 | 1009.1 |
| 20260505164542 | 26 | 277 | 3.2 | 12.9 | 0.00 | 2.72 | 0.38 | 41 | 1009.4 |
| 20260505163035 | 26 | 264 | 1.6 | 8.0 | 0.00 | 2.72 | 0.38 | 42 | 1009.6 |